When you browse on this site, cookies collect data to enhance your experience and personalize the content and advertising you see.
Visit our Privacy Policy to learn more. By continuing to use the site, you agree to this use of cookies and data.
  • In Austria
  • List of Countries
  • For 7 days
  • Water Temperature
  • Weather Map
  • News
  • Weather Widgets
  • user-avatar
    Login

    Hourly Weather Ayent

    Today, 23 September, Monday

    Time Temperature Precipitation Wind Pressure Humidity
    00:00 +4°C° 0 mm 2 mps 580 mmHg 96%
    01:00 +4°C° 2.3 mm 2 mps 580 mmHg 96%
    02:00 +4°C° 2.3 mm 1 mps 579 mmHg 96%
    03:00 +4°C° 2.3 mm 1 mps 579 mmHg 97%
    04:00 +4°C° 0.3 mm 1 mps 579 mmHg 97%
    05:00 +4°C° 0.3 mm 1 mps 579 mmHg 97%
    06:00 +4°C° 0 mm 1 mps 580 mmHg 97%
    07:00 +3°C° 0.4 mm 2 mps 580 mmHg 96%
    08:00 +3°C° 0.4 mm 2 mps 580 mmHg 95%
    09:00 +4°C° 0.4 mm 2 mps 580 mmHg 95%
    10:00 +5°C° 0.2 mm 2 mps 581 mmHg 89%
    11:00 +5°C° 0.2 mm 2 mps 581 mmHg 83%
    12:00 +6°C° 0.2 mm 2 mps 581 mmHg 77%
    13:00 +7°C° 0.1 mm 2 mps 581 mmHg 75%
    14:00 +7°C° 0.1 mm 2 mps 581 mmHg 73%
    15:00 +7°C° 0.1 mm 2 mps 581 mmHg 70%
    16:00 +5°C° 0 mm 2 mps 580 mmHg 77%
    17:00 +4°C° 0 mm 1 mps 580 mmHg 84%
    18:00 +3°C° 0 mm 1 mps 579 mmHg 91%
    19:00 +2°C° 0 mm 1 mps 579 mmHg 91%
    20:00 +2°C° 0 mm 1 mps 579 mmHg 91%
    21:00 +1°C° 0 mm 1 mps 579 mmHg 90%
    22:00 +1°C° 0 mm 1 mps 579 mmHg 88%
    23:00 +1°C° 0 mm 1 mps 579 mmHg 86%

    Tomorrow, 24 September, Tuesday

    Time Temperature Precipitation Wind Pressure Humidity
    00:00 +1°C° 0 mm 1 mps 579 mmHg 84%
    01:00 +1°C° 0 mm 1 mps 579 mmHg 83%
    02:00 +1°C° 0 mm 1 mps 578 mmHg 81%
    03:00 +1°C° 0 mm 1 mps 578 mmHg 79%
    04:00 +1°C° 0 mm 1 mps 578 mmHg 75%
    05:00 +2°C° 0 mm 1 mps 578 mmHg 71%
    06:00 +2°C° 0 mm 1 mps 578 mmHg 67%
    07:00 +4°C° 0 mm 1 mps 579 mmHg 60%
    08:00 +7°C° 0 mm 1 mps 580 mmHg 53%
    09:00 +9°C° 0 mm 1 mps 581 mmHg 46%
    10:00 +8°C° 0.3 mm 1 mps 581 mmHg 55%
    11:00 +6°C° 0.3 mm 2 mps 580 mmHg 64%
    12:00 +6°C° 0.3 mm 2 mps 580 mmHg 73%
    13:00 +5°C° 0.4 mm 2 mps 579 mmHg 78%
    14:00 +5°C° 0.4 mm 2 mps 579 mmHg 82%
    15:00 +5°C° 0.4 mm 1 mps 579 mmHg 87%
    16:00 +5°C° 0.4 mm 1 mps 579 mmHg 90%
    17:00 +5°C° 0.4 mm 1 mps 578 mmHg 93%
    18:00 +4°C° 0.4 mm 1 mps 578 mmHg 96%
    19:00 +5°C° 0.3 mm 1 mps 578 mmHg 96%
    20:00 +5°C° 0.3 mm 1 mps 579 mmHg 96%
    21:00 +5°C° 0.3 mm 1 mps 579 mmHg 97%
    22:00 +5°C° 0.1 mm 1 mps 579 mmHg 96%
    23:00 +4°C° 0.1 mm 2 mps 578 mmHg 96%

    Day after tomorrow, 25 September, Wednesday

    Time Temperature Precipitation Wind Pressure Humidity
    00:00 +4°C° 0.1 mm 2 mps 578 mmHg 95%
    01:00 +3°C° 0.1 mm 2 mps 578 mmHg 95%
    02:00 +4°C° 0.1 mm 1 mps 577 mmHg 94%
    03:00 +3°C° 0.1 mm 1 mps 577 mmHg 93%
    04:00 +3°C° 0.2 mm 1 mps 577 mmHg 94%
    05:00 +3°C° 0.2 mm 1 mps 577 mmHg 95%
    06:00 +3°C° 0.2 mm 1 mps 577 mmHg 96%
    07:00 +3°C° 0.2 mm 2 mps 577 mmHg 93%
    08:00 +3°C° 0.2 mm 2 mps 578 mmHg 90%
    09:00 +4°C° 0.2 mm 2 mps 578 mmHg 87%
    10:00 +5°C° 0.3 mm 2 mps 578 mmHg 82%
    11:00 +6°C° 0.3 mm 2 mps 579 mmHg 78%
    12:00 +6°C° 0.3 mm 2 mps 579 mmHg 74%
    13:00 +6°C° 0.4 mm 2 mps 579 mmHg 76%
    14:00 +6°C° 0.4 mm 2 mps 578 mmHg 77%
    15:00 +5°C° 0.4 mm 2 mps 578 mmHg 79%
    16:00 +4°C° 0.2 mm 2 mps 578 mmHg 85%
    17:00 +3°C° 0.2 mm 2 mps 577 mmHg 90%
    18:00 +2°C° 0.2 mm 1 mps 577 mmHg 96%
    19:00 +2°C° 0 mm 1 mps 577 mmHg 95%
    20:00 +2°C° 0 mm 1 mps 577 mmHg 95%
    21:00 +1°C° 0 mm 2 mps 577 mmHg 95%
    22:00 +2°C° 0 mm 1 mps 577 mmHg 94%
    23:00 +2°C° 0 mm 1 mps 578 mmHg 93%

    26 September, Thursday

    Time Temperature Precipitation Wind Pressure Humidity
    00:00 +2°C° 0 mm 1 mps 578 mmHg 93%
    01:00 +2°C° 0.2 mm 1 mps 578 mmHg 93%
    02:00 +2°C° 0.2 mm 1 mps 578 mmHg 94%
    03:00 +2°C° 0.2 mm 1 mps 579 mmHg 95%
    04:00 +3°C° 0.2 mm 1 mps 579 mmHg 95%
    05:00 +3°C° 0.2 mm 1 mps 579 mmHg 95%
    06:00 +3°C° 0.2 mm 1 mps 579 mmHg 95%
    07:00 +4°C° 0 mm 1 mps 580 mmHg 92%
    08:00 +5°C° 0 mm 1 mps 581 mmHg 88%
    09:00 +7°C° 0 mm 1 mps 582 mmHg 85%
    10:00 +7°C° 0 mm 1 mps 582 mmHg 83%
    11:00 +7°C° 0 mm 1 mps 582 mmHg 82%
    12:00 +8°C° 0 mm 1 mps 583 mmHg 80%
    13:00 +8°C° 0 mm 1 mps 583 mmHg 77%
    14:00 +9°C° 0 mm 1 mps 583 mmHg 74%
    15:00 +10°C° 0 mm 1 mps 583 mmHg 71%
    16:00 +8°C° 0 mm 1 mps 582 mmHg 78%
    17:00 +6°C° 0 mm 1 mps 582 mmHg 86%
    18:00 +3°C° 0 mm 0 mps 581 mmHg 94%
    19:00 +4°C° 0 mm 1 mps 581 mmHg 94%
    20:00 +4°C° 0 mm 1 mps 581 mmHg 94%
    21:00 +3°C° 0 mm 1 mps 581 mmHg 94%
    22:00 +3°C° 0 mm 1 mps 581 mmHg 93%
    23:00 +3°C° 0 mm 1 mps 581 mmHg 92%

    27 September, Friday

    Time Temperature Precipitation Wind Pressure Humidity
    00:00 +3°C° 0 mm 1 mps 581 mmHg 92%
    01:00 +3°C° 0 mm 1 mps 581 mmHg 91%
    02:00 +3°C° 0 mm 1 mps 581 mmHg 89%
    03:00 +3°C° 0 mm 1 mps 580 mmHg 88%
    04:00 +3°C° 0 mm 1 mps 580 mmHg 87%
    05:00 +3°C° 0 mm 1 mps 580 mmHg 86%
    06:00 +3°C° 0 mm 1 mps 580 mmHg 84%
    07:00 +6°C° 0 mm 1 mps 582 mmHg 78%
    08:00 +8°C° 0 mm 1 mps 583 mmHg 72%
    09:00 +10°C° 0 mm 1 mps 584 mmHg 65%
    10:00 +11°C° 0 mm 1 mps 584 mmHg 61%
    11:00 +12°C° 0 mm 1 mps 585 mmHg 57%
    12:00 +13°C° 0 mm 2 mps 585 mmHg 53%
    13:00 +13°C° 0 mm 2 mps 585 mmHg 53%
    14:00 +12°C° 0 mm 2 mps 584 mmHg 53%
    15:00 +12°C° 0 mm 2 mps 584 mmHg 52%
    16:00 +10°C° 0 mm 1 mps 583 mmHg 62%
    17:00 +8°C° 0 mm 1 mps 582 mmHg 72%
    18:00 +5°C° 0 mm 1 mps 581 mmHg 81%
    19:00 +5°C° 0 mm 1 mps 581 mmHg 81%
    20:00 +6°C° 0 mm 1 mps 582 mmHg 81%
    21:00 +6°C° 0 mm 1 mps 582 mmHg 81%
    22:00 +5°C° 0.1 mm 1 mps 582 mmHg 83%
    23:00 +5°C° 0.1 mm 1 mps 582 mmHg 86%

    28 September, Saturday

    Time Temperature Precipitation Wind Pressure Humidity
    00:00 +4°C° 0.1 mm 1 mps 581 mmHg 88%
    01:00 +4°C° 0.1 mm 1 mps 581 mmHg 90%
    02:00 +4°C° 0.1 mm 1 mps 581 mmHg 92%
    03:00 +4°C° 0.1 mm 1 mps 581 mmHg 94%
    04:00 +4°C° 0.1 mm 1 mps 581 mmHg 95%
    05:00 +4°C° 0.1 mm 1 mps 581 mmHg 95%
    06:00 +4°C° 0.1 mm 1 mps 581 mmHg 96%
    07:00 +5°C° 0 mm 1 mps 582 mmHg 91%
    08:00 +6°C° 0 mm 1 mps 583 mmHg 85%
    09:00 +7°C° 0 mm 1 mps 583 mmHg 79%
    10:00 +9°C° 0 mm 1 mps 584 mmHg 72%
    11:00 +10°C° 0 mm 1 mps 584 mmHg 64%
    12:00 +10°C° 0 mm 2 mps 585 mmHg 56%
    13:00 +10°C° 0 mm 2 mps 584 mmHg 56%
    14:00 +10°C° 0 mm 2 mps 584 mmHg 57%
    15:00 +10°C° 0 mm 2 mps 584 mmHg 57%
    16:00 +9°C° 0 mm 1 mps 583 mmHg 68%
    17:00 +7°C° 0 mm 1 mps 582 mmHg 78%
    18:00 +3°C° 0 mm 0 mps 581 mmHg 89%
    19:00 +4°C° 0 mm 1 mps 581 mmHg 87%
    20:00 +4°C° 0 mm 1 mps 581 mmHg 86%
    21:00 +4°C° 0 mm 1 mps 581 mmHg 84%
    22:00 +4°C° 0 mm 1 mps 581 mmHg 81%
    23:00 +4°C° 0 mm 1 mps 580 mmHg 78%
    Show more